User: anonymous   Login
Location: Theydon Bois
(51.6750°N, 0.1050°E)
Time: 23:15:18
(UTC+00:00)
Language:

Gbstr 26 Del rocket - Orbit

View from above orbital plane
View from above orbital plane
View from above satellite
View from above satellite

Ground track
Ground track

The orbit data is extracted from the following two-line orbital elements,

1 25876U 99041E   17351.19721152 -.00000182  00000-0  87830-5 0  9999
2 25876  51.7667 314.7765 0531182 201.3971 156.3981 14.04158793940321
Epoch (UTC): 17 December 2017 04:43:59
Eccentricity: 0.0531182
inclination: 51.7667°
perigee height: 494 km
apogee height: 1265 km
right ascension of ascending node: 314.7765°
argument of perigee: 201.3971°
revolutions per day: 14.04158793
mean anomaly at epoch: 156.3981°
orbit number at epoch: 94032

The dashed part of the orbit path shows where the satellite is in the earth's shadow,  

DLR